GW1017 Weather Reports


time (UTC)temp
C
wind
direction
speed
KPH
gust
KPH
rain 1hr
cm
rain 24hr
cm
rain mn
cm
humidity
%
barometer
mb
20260506140100 7 158 0.0 1.6 0.00 0.15 0.03 73 1017.0
20260506134549 6 134 0.0 1.6 0.00 0.15 0.03 77 1017.0
20260506133056 5 0 0.0 3.2 0.00 0.15 0.03 85 1016.8
20260506131546 4 0 0.0 0.0 0.00 0.15 0.03 88 1016.8
20260506130053 3 0 0.0 1.6 0.00 0.15 0.03 90 1016.5
20260506124548 2 299 0.0 1.6 0.00 0.15 0.03 90 1016.5
20260506123052 2 0 0.0 0.0 0.00 0.15 0.03 89 1016.3
20260506121549 2 0 0.0 0.0 0.03 0.15 0.03 90 1016.3
20260506120109 2 0 0.0 1.6 0.03 0.15 0.03 89 1016.2
20260506114601 2 0 0.0 0.0 0.03 0.15 0.03 88 1016.0
20260506113051 2 0 0.0 0.0 0.03 0.15 0.03 88 1015.8
20260506111552 3 0 0.0 0.0 0.00 0.13 0.00 88 1015.6
20260506110050 3 0 0.0 0.0 0.00 0.13 0.00 87 1015.4
20260506104548 3 0 0.0 1.6 0.00 0.13 0.00 87 1015.3
20260506103049 3 0 0.0 0.0 0.00 0.13 0.00 86 1015.1
20260506101552 3 0 0.0 0.0 0.00 0.13 0.00 85 1015.1
20260506100050 4 0 0.0 0.0 0.00 0.13 0.00 84 1015.0
20260506094550 5 0 0.0 0.0 0.00 0.13 0.00 81 1014.8
20260506093109 5 0 0.0 0.0 0.00 0.13 0.00 78 1014.8
20260506091549 6 0 0.0 0.0 0.00 0.13 0.00 76 1014.8
20260506090058 7 0 0.0 1.6 0.00 0.13 0.00 74 1014.9
20260506084554 7 0 0.0 6.4 0.00 0.13 0.00 71 1014.9
20260506083057 7 111 1.6 8.0 0.00 0.13 0.00 74 1015.0
20260506081555 6 0 0.0 1.6 0.00 0.13 0.00 83 1015.2
20260506080110 6 0 0.0 1.6 0.00 0.13 0.00 83 1015.1
20260506073103 7 0 0.0 0.0 0.00 0.13 0.00 82 1015.1
20260506071554 7 0 0.0 0.0 0.00 0.13 0.00 82 1015.1
20260506061601 8 0 0.0 0.0 0.00 0.13 0.00 81 1014.4
20260506044605 10 0 0.0 0.0 0.00 0.13 0.13 74 1014.0
20260506043056 10 47 0.0 4.8 0.00 0.13 0.13 72 1013.8
20260506041605 11 32 0.0 8.0 0.00 0.13 0.13 70 1013.7
20260506040101 11 28 3.2 9.7 0.00 0.13 0.13 66 1013.7
20260506034552 11 309 1.6 11.3 0.00 0.13 0.13 67 1013.3
20260506033056 11 44 3.2 9.7 0.00 0.13 0.13 68 1012.9
20260506031559 11 41 4.8 11.3 0.00 0.13 0.13 73 1012.5
20260506030057 10 315 0.0 1.6 0.00 0.13 0.13 83 1012.2
20260506024555 11 0 0.0 0.0 0.00 0.13 0.13 81 1011.6
20260506023102 11 0 0.0 0.0 0.00 0.13 0.13 81 1011.2
20260506021556 11 0 0.0 1.6 0.00 0.13 0.13 81 1011.0
20260506020119 12 0 0.0 0.0 0.00 0.13 0.13 78 1010.5
20260506014553 12 0 0.0 1.6 0.00 0.13 0.13 75 1010.4
20260506013052 13 0 0.0 0.0 0.00 0.13 0.13 70 1010.4
20260506011550 14 0 0.0 1.6 0.00 0.13 0.13 66 1010.3
20260506010049 14 0 0.0 0.0 0.00 0.13 0.13 65 1010.6
20260506004553 15 0 0.0 0.0 0.00 0.13 0.13 58 1010.1
20260506003052 15 0 0.0 3.2 0.00 0.13 0.13 53 1010.1
20260506001603 16 21 1.6 6.4 0.00 0.13 0.13 52 1009.9
20260506000118 16 91 0.0 4.8 0.00 0.13 0.13 50 1009.8
20260505234607 16 0 0.0 6.4 0.00 0.13 0.13 55 1010.1
20260505233053 16 0 0.0 8.0 0.00 0.13 0.13 53 1010.2
20260505231556 16 226 1.6 6.4 0.00 0.13 0.13 51 1010.4
20260505230053 16 54 1.6 8.0 0.00 0.13 0.13 56 1010.5
20260505224552 15 311 3.2 9.7 0.00 0.13 0.13 56 1010.5
20260505223048 15 354 3.2 16.1 0.00 0.13 0.13 55 1010.8
20260505221558 15 61 3.2 22.5 0.00 0.13 0.13 58 1011.2
20260505220105 15 12 4.8 14.5 0.00 0.13 0.13 62 1011.1
20260505214559 15 0 1.6 11.3 0.00 0.13 0.13 68 1011.7
20260505213051 16 271 1.6 6.4 0.00 0.13 0.13 58 1011.6
20260505211629 16 19 1.6 12.9 0.00 0.13 0.13 55 1011.0
20260505210049 17 309 3.2 9.7 0.00 0.13 0.13 54 1011.2
20260505204604 18 6 4.8 9.7 0.00 0.13 0.13 55 1011.2
20260505203056 17 0 0.0 8.0 0.00 0.13 0.13 52 1011.9
20260505201553 19 0 3.2 9.7 0.00 0.13 0.13 51 1011.8
20260505200054 18 291 3.2 9.7 0.00 0.13 0.13 54 1011.7
20260505194604 17 284 3.2 11.3 0.00 0.13 0.13 57 1011.7
20260505193055 16 315 3.2 12.9 0.00 0.13 0.13 58 1011.8
20260505191605 15 297 1.6 11.3 0.00 0.13 0.13 65 1012.3
20260505190111 15 300 1.6 11.3 0.00 0.13 0.13 71 1012.3
20260505184557 16 309 1.6 8.0 0.00 0.13 0.13 61 1012.5
20260505183052 17 0 1.6 6.4 0.00 0.13 0.13 60 1012.3
20260505181642 16 299 1.6 8.0 0.00 0.13 0.13 58 1012.4
20260505180105 16 19 0.0 4.8 0.00 0.13 0.13 56 1012.7
20260505174559 15 150 1.6 9.7 0.03 0.13 0.13 60 1012.7
20260505173052 15 62 1.6 8.0 0.03 0.13 0.13 62 1012.7
20260505171558 14 60 1.6 9.7 0.03 0.13 0.13 70 1012.8
20260505170052 13 122 0.0 3.2 0.05 0.13 0.13 80 1013.1
20260505164553 12 98 1.6 4.8 0.05 0.10 0.10 78 1013.1
20260505163049 11 98 1.6 6.4 0.08 0.10 0.10 81 1013.1
20260505161552 11 46 1.6 8.0 0.10 0.10 0.10 83 1013.2
20260505153050 12 72 3.2 8.0 0.03 0.03 0.03 70 1013.1
20260505151559 12 0 1.6 4.8 0.00 0.00 0.00 69 1013.1